Location: Azalea Creek
(37.1280°N, 119.2623°W)
Time: 17:21:30
(UTC+00:00)

STARLINK-56 - Pass Details

Date: 17 February 2020
Orbit: 529 x 530 km, 53.0° (Epoch: 29 March)

Event Time Altitude Azimuth Distance (km) Brightness Sun altitude
Rises 02:26:49 0° 207° (SSW) 2,648 7.6 -10.4°
Reaches altitude 10° 02:29:07 10° 199° (SSW) 1,763 6.6 -10.9°
Maximum altitude 02:32:49 37° 131° (SE) 827 4.2 -11.6°
Enters shadow 02:35:19 18° 72° (ENE) 1,338 5.0 -12.1°
